[[{"header":{"parameterUnit":"m.s-1","parameterCategory":1,"la1":30.2991,"la2":30.254,"lo1":-89.0895,"lo2":-89.0444,"dy":0.0017,"dx":0.0017,"nx":28,"ny":28,"refTime":"2025-08-27T03:00:00:Z","depth":0,"parameterNumber":2,"parameterNumberName":"U-component_of_WINDS"},"data":[0,0,0,0,0,0,0,0,0,0,0,0,0,0,0,0,0,0,0,0,0,0,0,0,0,0,0,0,0,0,0,0,0,0,0,0,0,0,0,0,0,0,0,0,0,0,0,0,0,0,0,0,0,0,0,0,0,0,-1.1959,-1.1959,0,-1.1973,-1.1973,-1.1973,-1.197,-1.1969,-1.1969,-1.1969,-1.1982,-1.1982,-1.1983,0,0,0,0,0,0,0,0,0,0,0,0,0,-1.1929,-1.1929,-1.1959,-1.1959,-1.1959,-1.1973,-1.1973,-1.1973,-1.197,-1.1969,-1.1969,-1.1969,-1.1982,-1.1982,-1.1983,0,0,0,0,0,0,0,0,0,0,0,0,0,-1.1942,-1.1929,-1.1959,-1.1959,-1.1959,-1.1972,-1.1973,-1.1973,-1.197,-1.1969,-1.1969,-1.1969,-1.1981,-1.1982,-1.1983,-1.1996,0,0,-1.1986,-1.1986,0,0,0,0,0,0,0,0,-1.1941,-1.1943,-1.1959,-1.1959,-1.1959,-1.1969,-1.1967,-1.1981,-1.197,-1.1966,-1.1969,-1.1968,-1.1978,-1.1979,-1.1982,-1.1997,-1.1998,-1.1986,-1.1986,-1.1987,-1.1987,0,0,0,0,0,0,0,-1.194,-1.1942,-1.1964,-1.1959,-1.1959,-1.1958,-1.196,-1.1969,-1.1974,-1.1966,-1.1966,-1.1968,-1.1978,-1.1981,-1.1983,-1.1998,-1.1986,-1.1987,-1.1987,-1.1988,-1.2023,-1.2024,0,0,0,0,0,0,-1.1939,-1.1942,-1.1964,-1.1965,-1.1949,-1.1959,-1.1961,-1.1966,-1.1974,-1.1974,-1.1968,-1.1967,-1.198,-1.1982,-1.1983,-1.1999,-1.1987,-1.1988,-1.1988,-1.2023,-1.2023,-1.2024,0,0,0,0,0,0,-1.1939,-1.1941,-1.1963,-1.1953,-1.1956,-1.196,-1.1966,-1.1967,-1.197,-1.1975,-1.1976,-1.1971,-1.198,-1.1982,-1.1993,-1.1999,-1.1988,-1.1989,-1.2022,-1.2023,-1.2024,-1.203,0,0,0,0,0,0,-1.1938,-1.1941,-1.1947,-1.1953,-1.1956,-1.1973,-1.1967,-1.1967,-1.1972,-1.1972,-1.1978,-1.1979,-1.198,-1.1992,-1.1994,-1.2,-1.199,-1.2022,-1.2023,-1.2023,-1.203,-1.2031,-1.2032,0,0,0,0,0,-1.1937,-1.1948,-1.1947,-1.195,-1.1963,-1.1974,-1.1976,-1.1977,-1.1973,-1.1978,-1.1981,-1.1979,-1.1998,-1.1993,-1.1995,-1.2002,-1.2022,-1.2022,-1.2023,-1.2029,-1.2031,-1.2032,0,0,0,0,0,0,-1.1942,-1.1949,-1.1948,-1.1961,-1.1967,-1.1973,-1.198,-1.1979,-1.1985,-1.1985,-1.1985,-1.1987,-1.1998,-1.2001,-1.1995,-1.2015,-1.2009,-1.2011,-1.2013,-1.2014,-1.2016,-1.2015,-1.199,0,0,0,0,0,-1.1944,-1.1953,-1.1958,-1.197,-1.1973,-1.1976,-1.198,-1.1981,-1.1987,-1.1989,-1.1993,-1.1998,-1.2005,-1.201,-1.2017,-1.203,-1.2031,-1.2036,-1.2037,-1.2038,-1.2039,-1.2046,-1.2048,-1.2027,-1.2027,-1.2027,0,0,-1.195,-1.1955,-1.196,-1.1971,-1.1975,-1.1983,-1.1978,-1.1987,-1.1993,-1.199,-1.2001,-1.2004,-1.201,-1.2022,-1.2027,-1.2024,-1.2045,-1.2039,-1.204,-1.2041,-1.2047,-1.2049,-1.2051,-1.2028,-1.2028,-1.2027,0,0,-1.1964,-1.1969,-1.1979,-1.1983,-1.199,-1.1992,-1.1994,-1.2001,-1.2002,-1.2013,-1.2011,-1.2018,-1.2031,-1.2035,-1.2039,-1.2054,-1.2052,-1.2056,-1.2064,-1.207,-1.2072,-1.2073,-1.2078,-1.208,-1.2057,-1.2057,-1.2057,0,-1.197,-1.1983,-1.1984,-1.1993,-1.1997,-1.1996,-1.2005,-1.2009,-1.2018,-1.2021,-1.2018,-1.2033,-1.2037,-1.205,-1.2054,-1.2057,-1.2059,-1.2055,-1.2071,-1.2073,-1.2074,-1.2079,-1.2081,-1.2058,-1.2058,-1.2058,-1.2058,0,-1.1989,-1.1998,-1.2005,-1.2014,-1.2019,-1.2028,-1.203,-1.2035,-1.2035,-1.2037,-1.2048,-1.2053,-1.206,-1.2063,-1.2063,-1.2076,-1.2074,-1.2071,-1.2065,-1.2077,-1.2081,-1.2083,-1.2059,-1.2058,-1.2058,-1.2058,0,0,-1.2008,-1.2016,-1.2019,-1.2022,-1.2029,-1.2036,-1.2045,-1.2052,-1.2056,-1.2062,-1.2069,-1.208,-1.2077,-1.2081,-1.2082,-1.2087,-1.2098,-1.2084,-1.2084,-1.2086,-1.2112,-1.2114,-1.2116,-1.2097,-1.2098,-1.2098,-1.2111,0,-1.2022,-1.2038,-1.2039,-1.2053,-1.2061,-1.2059,-1.2067,-1.2072,-1.2074,-1.208,-1.2082,-1.2089,-1.2085,-1.2088,-1.2093,-1.2096,-1.2104,-1.2095,-1.2103,-1.2104,-1.2102,-1.2119,-1.2121,-1.2134,-1.2113,-1.2114,-1.2114,0,-1.2042,-1.2048,-1.2063,-1.2068,-1.2072,-1.2079,-1.2085,-1.2092,-1.2097,-1.2098,-1.2102,-1.2102,-1.211,-1.2104,-1.2116,-1.211,-1.2113,-1.2115,-1.2115,-1.2116,-1.2109,-1.2119,-1.2138,-1.214,-1.2117,-1.2116,-1.2116,0,-1.2053,-1.2065,-1.2076,-1.2079,-1.2085,-1.209,-1.2093,-1.2098,-1.2102,-1.2108,-1.2111,-1.2117,-1.2121,-1.2126,-1.2127,-1.2122,-1.2138,-1.2132,-1.2139,-1.2139,-1.2142,-1.2142,-1.2161,-1.2145,-1.2145,-1.2145,-1.2145,0,-1.2069,-1.2079,-1.2081,-1.2087,-1.2097,-1.2098,-1.2108,-1.211,-1.2114,-1.2121,-1.2119,-1.2126,-1.2126,-1.2133,-1.2133,-1.2142,-1.2144,-1.2145,-1.2145,-1.2145,-1.2145,-1.2147,-1.2146,-1.2145,-1.2145,-1.2145,-1.2145,0,-1.2084,-1.2086,-1.2097,-1.2102,-1.2104,-1.2111,-1.2115,-1.2121,-1.2122,-1.2131,-1.2132,-1.2135,-1.2142,-1.2143,-1.2152,-1.2152,-1.2163,-1.2162,-1.2161,-1.2161,-1.2168,-1.2167,-1.2189,-1.2191,-1.2173,-1.2174,-1.2174,0,-1.2094,-1.2101,-1.2107,-1.2111,-1.2114,-1.2121,-1.2126,-1.2126,-1.2131,-1.2137,-1.2142,-1.2149,-1.2154,-1.2165,-1.2168,-1.2174,-1.2173,-1.2181,-1.2174,-1.2174,-1.2173,-1.2173,-1.2173,-1.2182,-1.2182,-1.2182,-1.2182,0,-1.2112,-1.2113,-1.2119,-1.2126,-1.2131,-1.2136,-1.2141,-1.2144,-1.2146,-1.2151,-1.2158,-1.2162,-1.217,-1.2177,-1.2183,-1.2186,-1.2184,-1.2184,-1.2186,-1.2186,-1.2185,-1.2185,-1.2164,-1.2184,-1.2184,-1.2183,-1.2183,-1.2183,-1.2125,-1.2131,-1.2136,-1.2143,-1.2146,-1.2151,-1.2156,-1.2158,-1.2164,-1.2171,-1.2171,-1.2179,-1.2183,-1.2191,-1.2194,-1.22,-1.2198,-1.22,-1.2201,-1.2202,-1.2202,-1.2184,-1.2201,-1.2201,-1.2201,-1.2201,-1.2201,0,-1.2143,-1.2146,-1.2152,-1.2159,-1.2164,-1.2162,-1.2167,-1.2171,-1.2178,-1.2182,-1.2188,-1.2196,-1.2202,-1.2205,-1.2211,-1.2215,-1.2214,-1.2216,-1.2216,-1.2217,-1.2204,-1.2202,-1.2217,-1.2217,-1.2217,-1.2217,-1.2217,-1.2217,-1.2153,-1.2162,-1.2163,-1.2174,-1.2177,-1.2185,-1.2188,-1.2191,-1.2195,-1.2204,-1.2209,-1.221,-1.2214,-1.222,-1.2225,-1.2226,-1.2228,-1.2231,-1.2231,-1.2219,-1.2217,-1.2216,-1.2214,-1.2231,-1.2231,-1.2243,-1.2243,-1.2243]},{"header":{"parameterUnit":"m.s-1","parameterCategory":1,"la1":30.2991,"la2":30.254,"lo1":-89.0895,"lo2":-89.0444,"dy":0.0017,"dx":0.0017,"nx":28,"ny":28,"refTime":"2025-08-27T03:00:00:Z","depth":0,"parameterNumber":3,"parameterNumberName":"V-component_of_WINDS"},"data":[0,0,0,0,0,0,0,0,0,0,0,0,0,0,0,0,0,0,0,0,0,0,0,0,0,0,0,0,0,0,0,0,0,0,0,0,0,0,0,0,0,0,0,0,0,0,0,0,0,0,0,0,0,0,0,0,0,0,-0.7674,-0.7676,0,-0.7858,-0.786,-0.7862,-0.7984,-0.7985,-0.7986,-0.7987,-0.8174,-0.8178,-0.8182,0,0,0,0,0,0,0,0,0,0,0,0,0,-0.7425,-0.7429,-0.7674,-0.7676,-0.7678,-0.7858,-0.786,-0.7863,-0.7984,-0.7985,-0.7986,-0.7987,-0.8173,-0.8178,-0.8183,0,0,0,0,0,0,0,0,0,0,0,0,0,-0.7564,-0.7431,-0.7673,-0.776,-0.777,-0.7857,-0.786,-0.7863,-0.7984,-0.7985,-0.7986,-0.7987,-0.8171,-0.8177,-0.8183,-0.8198,0,0,-0.8203,-0.8206,0,0,0,0,0,0,0,0,-0.7556,-0.7573,-0.7745,-0.7755,-0.7766,-0.7899,-0.7841,-0.7975,-0.7983,-0.7903,-0.7987,-0.7988,-0.8082,-0.8095,-0.8127,-0.8207,-0.8215,-0.8203,-0.8207,-0.821,-0.8212,0,0,0,0,0,0,0,-0.7546,-0.7565,-0.7747,-0.7748,-0.776,-0.779,-0.7811,-0.7867,-0.7983,-0.791,-0.7919,-0.7939,-0.8087,-0.8121,-0.8132,-0.8217,-0.8203,-0.8209,-0.8213,-0.8215,-0.8317,-0.8316,0,0,0,0,0,0,-0.7523,-0.7556,-0.7741,-0.7752,-0.7661,-0.7793,-0.7817,-0.7855,-0.7983,-0.8003,-0.7938,-0.7944,-0.8109,-0.8125,-0.8139,-0.8165,-0.821,-0.8216,-0.8219,-0.8318,-0.8317,-0.8316,0,0,0,0,0,0,-0.7517,-0.7538,-0.7733,-0.7657,-0.7684,-0.7796,-0.7838,-0.7858,-0.7892,-0.8004,-0.8025,-0.7951,-0.8111,-0.8131,-0.8182,-0.8173,-0.8219,-0.8224,-0.8319,-0.8318,-0.8316,-0.8214,0,0,0,0,0,0,-0.7509,-0.7535,-0.7542,-0.7656,-0.7688,-0.7773,-0.7838,-0.7861,-0.7902,-0.7912,-0.8022,-0.8041,-0.8113,-0.8172,-0.8189,-0.8182,-0.8229,-0.8321,-0.8319,-0.8317,-0.8219,-0.821,-0.8201,0,0,0,0,0,-0.75,-0.7506,-0.7542,-0.7564,-0.7699,-0.7773,-0.7791,-0.7874,-0.7901,-0.7909,-0.7981,-0.8038,-0.8171,-0.8176,-0.8196,-0.8191,-0.8322,-0.8319,-0.8317,-0.8223,-0.8211,-0.8201,0,0,0,0,0,0,-0.7389,-0.7523,-0.7564,-0.7608,-0.7678,-0.7793,-0.7806,-0.7859,-0.7923,-0.7929,-0.8029,-0.8053,-0.8094,-0.8148,-0.8152,-0.8212,-0.8253,-0.8254,-0.8175,-0.8165,-0.8156,-0.8142,-0.8235,0,0,0,0,0,-0.7369,-0.7418,-0.7533,-0.756,-0.7593,-0.7692,-0.7728,-0.7786,-0.7862,-0.7893,-0.7969,-0.804,-0.8098,-0.8135,-0.8194,-0.8227,-0.8252,-0.8234,-0.8224,-0.8217,-0.8217,-0.8237,-0.823,-0.8308,-0.8308,-0.8308,0,0,-0.7329,-0.7409,-0.7434,-0.7539,-0.7601,-0.7648,-0.7717,-0.7765,-0.7801,-0.79,-0.7954,-0.8011,-0.8098,-0.814,-0.8162,-0.8186,-0.8201,-0.8213,-0.8206,-0.8211,-0.8234,-0.8227,-0.822,-0.8306,-0.8306,-0.8306,0,0,-0.7281,-0.7346,-0.7376,-0.7436,-0.7527,-0.7593,-0.76,-0.7707,-0.7749,-0.7805,-0.788,-0.7924,-0.8022,-0.808,-0.8123,-0.8095,-0.8149,-0.8111,-0.8065,-0.8084,-0.8077,-0.8073,-0.8062,-0.8057,-0.8111,-0.8111,-0.811,0,-0.722,-0.7296,-0.7384,-0.7428,-0.7472,-0.7563,-0.7593,-0.7647,-0.7753,-0.778,-0.7806,-0.793,-0.7995,-0.8051,-0.8044,-0.8076,-0.8086,-0.81,-0.8071,-0.8067,-0.8064,-0.8055,-0.8051,-0.8105,-0.8106,-0.8107,-0.8107,0,-0.7216,-0.7267,-0.728,-0.738,-0.7425,-0.7462,-0.7555,-0.759,-0.7643,-0.7706,-0.776,-0.7841,-0.7918,-0.7936,-0.7989,-0.8,-0.8012,-0.8052,-0.8096,-0.805,-0.8043,-0.8041,-0.8098,-0.81,-0.8101,-0.8103,0,0,-0.7105,-0.7252,-0.7255,-0.7302,-0.7408,-0.7449,-0.7489,-0.7565,-0.7592,-0.7662,-0.7698,-0.7778,-0.7816,-0.7864,-0.7924,-0.794,-0.7912,-0.7979,-0.7983,-0.7964,-0.7928,-0.7897,-0.7892,-0.7948,-0.7948,-0.7948,-0.7921,0,-0.7073,-0.715,-0.723,-0.7279,-0.7326,-0.7413,-0.7447,-0.7516,-0.7575,-0.7624,-0.769,-0.7745,-0.7791,-0.7821,-0.7841,-0.7911,-0.7906,-0.7914,-0.7982,-0.7983,-0.7958,-0.7888,-0.7856,-0.7827,-0.7919,-0.7919,-0.7918,0,-0.7047,-0.7112,-0.7165,-0.7267,-0.729,-0.7319,-0.7395,-0.744,-0.7519,-0.7561,-0.7613,-0.7677,-0.7722,-0.776,-0.7823,-0.7827,-0.7859,-0.7897,-0.7898,-0.7908,-0.7948,-0.7896,-0.782,-0.7815,-0.7915,-0.7915,-0.7916,0,-0.696,-0.7061,-0.7106,-0.7143,-0.7262,-0.7281,-0.7331,-0.7412,-0.7451,-0.7517,-0.7543,-0.7612,-0.765,-0.7702,-0.7782,-0.7802,-0.7837,-0.7881,-0.7873,-0.787,-0.7877,-0.7875,-0.7804,-0.7896,-0.7897,-0.7897,-0.7897,0,-0.6917,-0.6946,-0.7068,-0.7096,-0.713,-0.7221,-0.7253,-0.7311,-0.7381,-0.7421,-0.75,-0.7535,-0.7638,-0.7686,-0.7748,-0.7791,-0.7808,-0.7842,-0.7859,-0.7836,-0.7831,-0.7858,-0.7863,-0.7896,-0.7896,-0.7896,-0.7896,0,-0.6826,-0.691,-0.6964,-0.7072,-0.71,-0.712,-0.7213,-0.7242,-0.7305,-0.7354,-0.7371,-0.747,-0.753,-0.7614,-0.77,-0.7742,-0.7775,-0.7802,-0.7749,-0.7758,-0.7745,-0.7745,-0.7689,-0.7686,-0.7779,-0.7778,-0.7777,0,-0.6794,-0.6818,-0.6928,-0.696,-0.7008,-0.7059,-0.71,-0.7189,-0.7228,-0.7319,-0.7337,-0.7403,-0.7461,-0.7552,-0.7631,-0.7696,-0.7725,-0.7701,-0.7735,-0.7711,-0.7724,-0.7722,-0.7725,-0.7692,-0.7691,-0.769,-0.7689,0,-0.6726,-0.6766,-0.6822,-0.6892,-0.6938,-0.6997,-0.706,-0.7082,-0.7185,-0.7224,-0.7286,-0.733,-0.7417,-0.7481,-0.7557,-0.7609,-0.7665,-0.7677,-0.7679,-0.7655,-0.7623,-0.764,-0.7726,-0.7678,-0.7679,-0.768,-0.7681,-0.7681,-0.6664,-0.6689,-0.677,-0.683,-0.6886,-0.6943,-0.6975,-0.7042,-0.7095,-0.7173,-0.7222,-0.7281,-0.7359,-0.7466,-0.7515,-0.7562,-0.7585,-0.7587,-0.7588,-0.7587,-0.7579,-0.7615,-0.7576,-0.7576,-0.7577,-0.7577,-0.7577,0,-0.6601,-0.6657,-0.671,-0.6796,-0.6842,-0.6891,-0.6962,-0.6997,-0.7049,-0.7116,-0.717,-0.724,-0.7302,-0.7386,-0.7453,-0.7475,-0.7502,-0.749,-0.7489,-0.75,-0.7554,-0.7546,-0.7466,-0.7466,-0.7466,-0.7466,-0.7466,-0.7466,-0.6574,-0.6618,-0.6667,-0.674,-0.6796,-0.6855,-0.6891,-0.6943,-0.6997,-0.7072,-0.7124,-0.7178,-0.7251,-0.7324,-0.7383,-0.7406,-0.7427,-0.7406,-0.7437,-0.7486,-0.7496,-0.7506,-0.7499,-0.741,-0.741,-0.7379,-0.7378,-0.7378]}]]